User: anonymous   Login
Location: Bacea
(45.9500°N, 22.6667°E)
Time: 12:28:16
(UTC+00:00)
Language:

Cosmos 2082 - Orbit

View from above orbital plane
View from above orbital plane
View from above satellite
View from above satellite

Ground track
Ground track

The orbit data is extracted from the following two-line orbital elements,

1 20624U 90046A   22021.90969901 -.00000221  00000-0 -90676-4 0  9992
2 20624  71.0415 298.4150 0015913 335.9832  24.0546 14.14375030634401
Epoch (UTC): 21 January 2022 21:49:57
Eccentricity: 0.0015913
inclination: 71.0415°
perigee height: 833 km
apogee height: 856 km
right ascension of ascending node: 298.4150°
argument of perigee: 335.9832°
revolutions per day: 14.14375030
mean anomaly at epoch: 24.0546°
orbit number at epoch: 63440

The dashed part of the orbit path shows where the satellite is in the earth's shadow,  

DLR